This is the latest recevied weather packets stored in our database for station/object KB9GXK. If no packets are shown the sender has not sent any weather packets the latest 1 day(s).
| Time | Temp. | Humidity | Pressure | Rain* | Wind** | Luminosity | Snow |
|---|---|---|---|---|---|---|---|
| 1777973407 | 10° C | 49% | 1006.6 hPa | 0 mm | 0.45 m/s, 29° | 0 W/m² | - |
| 1777973104 | 10° C | 50% | 1006.8 hPa | 0 mm | 0.45 m/s, 291° | 0 W/m² | - |
| 1777972802 | 10° C | 49% | 1006.6 hPa | 0 mm | 1.79 m/s, 330° | 0 W/m² | - |
| 1777972499 | 10° C | 49% | 1006.6 hPa | 0 mm | 0.45 m/s, 17° | 0 W/m² | - |
| 1777972197 | 10° C | 48% | 1006.3 hPa | 0 mm | 0.89 m/s, 331° | 0 W/m² | - |
| 1777971895 | 10° C | 49% | 1006.4 hPa | 0 mm | 0.45 m/s, 354° | 0 W/m² | - |
| 1777971592 | 10° C | 50% | 1006.4 hPa | 0 mm | 0.89 m/s, 42° | 0 W/m² | - |
| 1777971290 | 10° C | 51% | 1006.1 hPa | 0 mm | 2.24 m/s, 299° | 0 W/m² | - |
| 1777970988 | 10° C | 52% | 1005.9 hPa | 0 mm | 0.89 m/s, 11° | 0 W/m² | - |
| 1777970686 | 10° C | 54% | 1005.6 hPa | 0 mm | 0.45 m/s, 2° | 0 W/m² | - |
| 1777970383 | 10.56° C | 53% | 1005.4 hPa | 0 mm | 0 m/s | 0 W/m² | - |
| 1777970081 | 10.56° C | 52% | 1005.5 hPa | 0 mm | 0 m/s | 0 W/m² | - |
| 1777969777 | 10.56° C | 52% | 1005.4 hPa | 0 mm | 0.45 m/s, 298° | 0 W/m² | - |
| 1777969472 | 11.11° C | 51% | 1005.1 hPa | 0 mm | 0.45 m/s, 274° | 0 W/m² | - |
| 1777969170 | 11.11° C | 51% | 1005 hPa | 0 mm | 0.89 m/s, 6° | 0 W/m² | - |
| 1777968867 | 11.11° C | 51% | 1005.1 hPa | 0 mm | 1.34 m/s, 327° | 0 W/m² | - |
| 1777968563 | 11.11° C | 51% | 1004.8 hPa | 0 mm | 0 m/s | 0 W/m² | - |
| 1777968259 | 11.67° C | 51% | 1004.5 hPa | 0 mm | 0.45 m/s, 332° | 0 W/m² | - |
| 1777967955 | 11.67° C | 50% | 1004.5 hPa | 0 mm | 0 m/s | 0 W/m² | - |
| 1777967652 | 11.67° C | 50% | 1004.6 hPa | 0 mm | 0 m/s | 0 W/m² | - |
| 1777967349 | 12.22° C | 49% | 1004.2 hPa | 0 mm | 0.89 m/s, 42° | 0 W/m² | - |
| 1777967046 | 12.22° C | 49% | 1004.3 hPa | 0 mm | 0.89 m/s, 75° | 0 W/m² | - |
| 1777966743 | 12.78° C | 48% | 1004.1 hPa | 0 mm | 1.34 m/s, 303° | 0 W/m² | - |
| 1777966441 | 12.78° C | 49% | 1004.4 hPa | 0 mm | 0.45 m/s, 351° | 0 W/m² | - |
| 1777966138 | 12.78° C | 49% | 1004 hPa | 0 mm | 0.89 m/s, 9° | 0 W/m² | - |
* Rain latest hour (hover to see other rain measurements)
** Current wind speed in m/s (hover to see current wind gust speed)